Location: Bucquoy
(50.1391°N, 2.7097°E)
Time: 23:40:52
(UTC+00:00)

BREEZE-M DEB (TANK) - Pass Details

Date: 06 May 2021
Orbit: 323 x 16585 km, 49.3° (Epoch: 21 June)

Event Time Altitude Azimuth Distance (km) Brightness Sun altitude
Exits shadow 03:19:01 - 204° (SSW) 1,894 4.5 -8.5°
Reaches altitude 10° 03:19:31 10° 198° (SSW) 1,676 4.3 -8.5°
Maximum altitude 03:21:35 16° 156° (SSE) 1,064 3.7 -8.2°
Drops below altitude 10° 03:23:11 10° 111° (ESE) 1,252 4.6 -8.0°
Sets 03:25:18 0° 84° (E) 2,125 6.4 -7.7°
